Regional Weather Roundup
Issued by NWS

Home | Current Version | Previous Version | Text Only | Print | Product List | Glossary Off
Versions: 1 2 3 4 5 6 7 8 9 10 11 12 13 14 15 16 17 18 19 20 21 22 23 24 25 26 27 28 29 30 31 32 33 34 35 36 37 38 39 40 41 42 43 44 45 46 47 48 49 50

000
ASUS43 KBIS 210210
RWRND

NORTH DAKOTA REGIONAL WEATHER ROUNDUP
NATIONAL WEATHER SERVICE BISMARCK ND
900 PM CDT MON OCT 20 2014

NOTE: "FAIR" INDICATES FEW OR NO CLOUDS BELOW 12,000 FEET WITH NO
SIGNIFICANT WEATHER AND/OR OBSTRUCTIONS TO VISIBILITY.


NDZ001>003-009>011-017-210300-
NORTHWEST NORTH DAKOTA

CITY           SKY/WX    TMP DP  RH WIND       PRES   REMARKS
WILLISTON      CLEAR     55  41  59 CALM      29.81F
MINOT          CLEAR     54  35  48 SE8       29.89F
MINOT AFB      CLEAR     50  38  62 SE10      29.89S
$$

NDZ018>021-031>035-040>046-210300-
SOUTHWEST NORTH DAKOTA

CITY           SKY/WX    TMP DP  RH WIND       PRES   REMARKS
BISMARCK       CLEAR     52  35  52 E6        29.94S
DICKINSON      CLEAR     57  41  55 SE12      29.87F
GARRISON         N/A     51  39  63 SE7       29.91S
HETTINGER ARPT CLEAR     56  40  55 E9        29.91S
$$

NDZ004>008-012>016-024-026-027-054-210300-
NORTHEAST NORTH DAKOTA

CITY           SKY/WX    TMP DP  RH WIND       PRES   REMARKS
GRAND FORKS    CLEAR     46  39  76 SE8       30.03S
GRND FRKS AFB  CLEAR     46  41  84 SE6       30.03S
DEVILS LAKE    CLEAR     52  39  62 SE9       29.97S
$$

NDZ022-023-025-028>030-036>039-047>053-210300-
SOUTHEAST NORTH DAKOTA

CITY           SKY/WX    TMP DP  RH WIND       PRES   REMARKS
FARGO          CLEAR     48  39  71 E5        30.03S
JAMESTOWN      CLEAR     52  41  66 SE10      29.99S
$$



USA.gov is the U.S. government's official web portal to all federal, state and local government web resources and services.